TimeCST,TemperatureF,Dew PointF,Humidity,Sea Level PressureIn,VisibilityMPH,Wind Direction,Wind SpeedMPH,Gust SpeedMPH,PrecipitationIn,Events,Conditions,WindDirDegrees,DateUTC
12:53 AM,33.1,24.1,70,30.05,10.0,West,8.1,-,N/A,,Clear,280,2012-01-10 06:53:00
1:53 AM,30.9,24.1,76,30.04,10.0,West,6.9,-,N/A,,Clear,280,2012-01-10 07:53:00
2:53 AM,32.0,24.1,73,30.03,10.0,SW,6.9,-,N/A,,Clear,230,2012-01-10 08:53:00
3:53 AM,28.9,23.0,78,30.05,10.0,SSW,10.4,-,N/A,,Clear,210,2012-01-10 09:53:00
4:53 AM,30.0,23.0,75,30.04,10.0,SW,9.2,-,N/A,,Clear,220,2012-01-10 10:53:00
5:53 AM,28.9,23.0,78,30.07,10.0,Calm,Calm,-,N/A,,Clear,0,2012-01-10 11:53:00
6:53 AM,27.0,21.9,81,30.06,10.0,NNW,3.5,-,N/A,,Clear,330,2012-01-10 12:53:00
7:53 AM,28.0,23.0,81,30.06,10.0,South,8.1,-,N/A,,Clear,190,2012-01-10 13:53:00
8:53 AM,30.9,25.0,79,30.05,10.0,SW,5.8,-,N/A,,Clear,220,2012-01-10 14:53:00
9:53 AM,42.1,28.9,60,30.01,10.0,SSW,4.6,-,N/A,,Clear,210,2012-01-10 15:53:00
10:53 AM,48.0,28.0,46,29.98,10.0,SSW,9.2,-,N/A,,Clear,200,2012-01-10 16:53:00
11:53 AM,51.1,27.0,39,29.94,10.0,SSW,9.2,-,N/A,,Clear,200,2012-01-10 17:53:00
12:53 PM,53.1,27.0,37,29.92,10.0,SSW,15.0,-,N/A,,Clear,210,2012-01-10 18:53:00
1:53 PM,54.0,26.1,34,29.88,10.0,SSW,13.8,-,N/A,,Clear,210,2012-01-10 19:53:00
2:53 PM,54.0,26.1,34,29.87,10.0,SW,11.5,-,N/A,,Clear,220,2012-01-10 20:53:00
3:53 PM,53.1,23.0,31,29.86,10.0,SSW,12.7,-,N/A,,Clear,210,2012-01-10 21:53:00
4:53 PM,48.0,23.0,37,29.85,10.0,SSW,5.8,-,N/A,,Clear,210,2012-01-10 22:53:00
5:53 PM,46.9,21.9,37,29.85,10.0,SSW,4.6,-,N/A,,Clear,210,2012-01-10 23:53:00
6:53 PM,45.0,21.9,40,29.84,10.0,SW,4.6,-,N/A,,Clear,220,2012-01-11 00:53:00
7:53 PM,42.1,21.9,45,29.82,10.0,SW,4.6,-,N/A,,Clear,220,2012-01-11 01:53:00
8:53 PM,39.9,21.9,49,29.79,10.0,SW,6.9,-,N/A,,Clear,220,2012-01-11 02:53:00
9:53 PM,37.9,23.0,55,29.77,10.0,South,9.2,-,N/A,,Clear,170,2012-01-11 03:53:00
10:53 PM,37.0,21.9,54,29.75,10.0,South,8.1,-,N/A,,Clear,180,2012-01-11 04:53:00
11:53 PM,33.1,21.9,64,29.75,10.0,SSW,5.8,-,N/A,,Clear,210,2012-01-11 05:53:00